Location: Bacea
(45.9500°N, 22.6667°E)
Time: 00:18:03
(UTC+00:00)

Gbstr 26 Del rocket - Pass Details

Date: 16 October 2021
Orbit: 492 x 1263 km, 51.8° (Epoch: 26 November)

Event Time Altitude Azimuth Distance (km) Brightness Sun altitude
Rises 17:48:44 0° 297° (WNW) 3,829 8.4 -22.8°
Reaches altitude 10° 17:51:16 10° 297° (WNW) 2,965 7.5 -23.3°
Maximum altitude 17:58:41 87° 211° (SSW) 1,221 4.4 -24.5°
Enters shadow 18:01:32 45° 124° (SE) 1,630 4.7 -25.0°
